Weather History for Omaha, NE

Change the Weather History Date:

Friday, September 9, 2011

  Actual Average Record
Temperature  
Mean Temperature 73 °F 69 °F  
Max Temperature 83 °F 80 °F 100 °F (1955)
Min Temperature 62 °F 57 °F 43 °F (1995)
Degree Days  
Heating Degree Days 0 2  
Month to date heating degree days 6 10  
Since 1 July heating degree days 6 18  
Cooling Degree Days 8 5  
Month to date cooling degree days 51 55  
Year to date cooling degree days 1299 1035  
Growing Degree Days 22 (Base 50)    
Moisture  
Dew Point 60 °F    
Average Humidity 68    
Maximum Humidity 90    
Minimum Humidity 46    
Precipitation  
Precipitation 0.00 in 0.10 in 1.24 in (1912)
Month to date precipitation 0.52 0.90  
Year to date precipitation 24.82 24.01  
Snow  
Snow 0.00 in 0.00 in - ()
Month to date snowfall 0.0 0.0  
Since 1 July snowfall 0.0 0.0  
Snow Depth 0.00 in    
Sea Level Pressure  
Sea Level Pressure 30.04 in    
Wind  
Wind Speed 9 mph (North)    
Max Wind Speed 21 mph    
Max Gust Speed 25 mph    
Visibility 10 miles    
Events      
T = Trace of Precipitation, MM = Missing Value Source: NWS Daily Summary

Daily Weather History Graph

Daily Weather History Graph

Search for Another Location

Airport:

Trip Planner

Search our weather history database for the weather conditions in past years. The results will help you decide how hot, cold, wet, or windy it might be!

Date:

Astronomy

Sep. 09, 2011 Rise Set
Actual Time 6:57 AM CDT 7:43 PM CDT
Civil Twilight 6:29 AM CDT 8:11 PM CDT
Nautical Twilight 5:56 AM CDT 8:44 PM CDT
Astronomical Twilight 5:22 AM CDT 9:18 PM CDT
Moon 6:10 PM CDT (9/9) 4:17 AM CDT (9/9)
Length of Visible Light 13h 41m
Length of Day
12h 45m
Waxing Gibbous, 93% of the Moon is Illuminated
Sep 9
Waxing Gibbous
Sep 12
Full
Sep 20
Last Quarter
Sep 27
New
Oct 3
First Quarter

Hourly Weather History & Observations

Time (CDT) Temp. Heat Index Dew Point Humidity Pressure Visibility Wind Dir Wind Speed Gust Speed Precip Events Conditions
12:52 AM 66.9 °F - 61.0 °F 81% 30.12 in 10.0 mi North 5.8 mph - N/A   Mostly Cloudy
1:52 AM 66.0 °F - 60.1 °F 81% 30.12 in 10.0 mi North 6.9 mph - N/A   Scattered Clouds
2:52 AM 66.0 °F - 60.1 °F 81% 30.11 in 10.0 mi North 9.2 mph - N/A   Mostly Cloudy
3:52 AM 64.0 °F - 60.1 °F 87% 30.10 in 10.0 mi North 8.1 mph - N/A   Partly Cloudy
4:52 AM 63.0 °F - 59.0 °F 87% 30.09 in 10.0 mi NNW 6.9 mph - N/A   Partly Cloudy
5:52 AM 63.0 °F - 59.0 °F 87% 30.09 in 10.0 mi North 6.9 mph - N/A   Partly Cloudy
6:52 AM 63.0 °F - 59.0 °F 87% 30.10 in 10.0 mi NNW 9.2 mph - N/A   Mostly Cloudy
7:52 AM 64.9 °F - 59.0 °F 81% 30.11 in 10.0 mi North 6.9 mph - N/A   Mostly Cloudy
8:52 AM 66.2 °F - 59.0 °F 78% 30.11 in 10.0 mi North 11.5 mph - N/A   Mostly Cloudy
9:52 AM 68.0 °F - 59.0 °F 73% 30.10 in 10.0 mi North 10.4 mph - N/A   Scattered Clouds
10:52 AM 69.1 °F - 60.1 °F 73% 30.10 in 10.0 mi North 6.9 mph - N/A   Mostly Cloudy
11:52 AM 73.0 °F - 60.1 °F 64% 30.08 in 10.0 mi North 13.8 mph - N/A   Scattered Clouds
12:52 PM 77.0 °F - 61.0 °F 58% 30.06 in 10.0 mi North 9.2 mph - N/A   Scattered Clouds
1:52 PM 80.1 °F 80.9 °F 60.1 °F 50% 30.02 in 10.0 mi NNW 13.8 mph - N/A   Scattered Clouds
2:52 PM 82.0 °F 82.1 °F 59.0 °F 45% 30.00 in 10.0 mi North 16.1 mph 20.7 mph N/A   Scattered Clouds
3:52 PM 81.0 °F 81.6 °F 60.1 °F 49% 29.97 in 10.0 mi NNW 15.0 mph - N/A   Scattered Clouds
4:52 PM 82.0 °F 82.7 °F 61.0 °F 49% 29.95 in 10.0 mi NNW 17.3 mph 23.0 mph N/A   Scattered Clouds
5:52 PM 81.0 °F 81.7 °F 61.0 °F 50% 29.95 in 10.0 mi NNW 15.0 mph - N/A   Scattered Clouds
6:52 PM 79.0 °F - 61.0 °F 54% 29.95 in 10.0 mi North 8.1 mph - N/A   Scattered Clouds
7:52 PM 75.0 °F - 61.0 °F 62% 29.95 in 10.0 mi NNE 5.8 mph - N/A   Scattered Clouds
8:52 PM 73.0 °F - 60.1 °F 64% 29.98 in 10.0 mi North 3.5 mph - N/A   Scattered Clouds
9:52 PM 69.1 °F - 61.0 °F 75% 29.99 in 10.0 mi NNW 5.8 mph - N/A   Partly Cloudy
10:52 PM 66.9 °F - 63.0 °F 87% 30.00 in 10.0 mi NNW 3.5 mph - N/A   Partly Cloudy
11:52 PM 66.9 °F - 62.1 °F 84% 30.00 in 10.0 mi Calm Calm - N/A   Partly Cloudy